Time,TemperatureF,DewpointF,PressureIn,WindDirection,WindDirectionDegrees,WindSpeedMPH,WindSpeedGustMPH,Humidity,HourlyPrecipIn,Conditions,Clouds,dailyrainin,SoftwareType,DateUTC
2013-08-18 00:08:00,61.8,56.6,30.06,North,357,2.0,6.0,83,0.00,,---,0.00,VWS V14.01,2013-08-18 05:08:00,
2013-08-18 00:18:00,61.5,56.6,30.06,NNW,342,3.0,6.0,84,0.00,,---,0.00,VWS V14.01,2013-08-18 05:18:00,
2013-08-18 00:28:00,61.2,56.3,30.06,SW,224,2.0,7.0,84,0.00,,---,0.00,VWS V14.01,2013-08-18 05:28:00,
2013-08-18 00:38:00,60.9,56.4,30.05,West,261,3.0,5.0,85,0.00,,---,0.00,VWS V14.01,2013-08-18 05:38:00,
2013-08-18 00:48:00,60.7,56.2,30.05,North,357,2.0,5.0,85,0.00,,---,0.00,VWS V14.01,2013-08-18 05:48:00,
2013-08-18 00:58:00,60.5,56.0,30.05,North,359,1.0,5.0,85,0.00,,---,0.00,VWS V14.01,2013-08-18 05:58:00,
2013-08-18 01:00:00,60.5,56.0,30.05,North,359,3.0,5.0,85,0.00,,---,0.00,VWS V14.01,2013-08-18 06:00:00,
2013-08-18 01:08:00,60.4,56.2,30.05,North,359,2.0,5.0,86,0.00,,---,0.00,VWS V14.01,2013-08-18 06:08:00,
2013-08-18 01:18:00,60.4,56.2,30.06,North,359,3.0,5.0,86,0.00,,---,0.00,VWS V14.01,2013-08-18 06:18:00,
2013-08-18 01:28:00,60.5,56.0,30.06,North,359,2.0,5.0,85,0.00,,---,0.00,VWS V14.01,2013-08-18 06:28:00,
2013-08-18 01:38:00,60.7,56.2,30.06,North,359,3.0,5.0,85,0.00,,---,0.00,VWS V14.01,2013-08-18 06:38:00,
2013-08-18 01:48:00,60.9,56.0,30.05,North,359,1.0,5.0,84,0.00,,---,0.00,VWS V14.01,2013-08-18 06:48:00,
2013-08-18 01:58:00,61.0,56.1,30.05,North,359,3.0,5.0,84,0.00,,---,0.00,VWS V14.01,2013-08-18 06:58:00,
2013-08-18 02:08:00,61.0,56.1,30.06,WSW,244,2.0,5.0,84,0.00,,---,0.00,VWS V14.01,2013-08-18 07:08:00,
2013-08-18 02:18:00,61.2,56.3,30.06,North,359,2.0,5.0,84,0.00,,---,0.00,VWS V14.01,2013-08-18 07:18:00,
2013-08-18 02:28:00,61.0,56.1,30.06,North,359,2.0,5.0,84,0.00,,---,0.00,VWS V14.01,2013-08-18 07:28:00,
2013-08-18 02:38:00,61.0,56.1,30.05,North,359,2.0,5.0,84,0.00,,---,0.00,VWS V14.01,2013-08-18 07:38:00,
2013-08-18 02:48:00,61.0,56.1,30.04,NNW,344,2.0,5.0,84,0.00,,---,0.00,VWS V14.01,2013-08-18 07:48:00,
2013-08-18 02:58:00,60.7,55.8,30.04,North,356,2.0,5.0,84,0.00,,---,0.00,VWS V14.01,2013-08-18 07:58:00,
2013-08-18 03:08:00,60.4,55.9,30.04,North,359,2.0,5.0,85,0.00,,---,0.00,VWS V14.01,2013-08-18 08:08:00,
2013-08-18 03:18:00,60.2,56.0,30.04,North,354,3.0,5.0,86,0.00,,---,0.00,VWS V14.01,2013-08-18 08:18:00,
2013-08-18 03:28:00,60.2,56.0,30.04,North,359,3.0,5.0,86,0.00,,---,0.00,VWS V14.01,2013-08-18 08:28:00,
2013-08-18 03:38:00,60.4,55.9,30.04,NNW,337,1.0,5.0,85,0.00,,---,0.00,VWS V14.01,2013-08-18 08:38:00,
2013-08-18 03:48:00,60.5,56.0,30.04,NNW,346,3.0,5.0,85,0.00,,---,0.00,VWS V14.01,2013-08-18 08:48:00,
2013-08-18 03:58:00,60.5,56.0,30.04,WNW,294,5.0,5.0,85,0.00,,---,0.00,VWS V14.01,2013-08-18 08:58:00,
2013-08-18 04:08:00,60.4,55.9,30.04,North,357,5.0,5.0,85,0.00,,---,0.00,VWS V14.01,2013-08-18 09:08:00,
2013-08-18 04:18:00,60.2,56.0,30.04,WSW,241,3.0,6.0,86,0.00,,---,0.00,VWS V14.01,2013-08-18 09:18:00,
2013-08-18 04:28:00,60.1,55.9,30.04,North,357,3.0,6.0,86,0.00,,---,0.00,VWS V14.01,2013-08-18 09:28:00,
2013-08-18 04:38:00,60.1,55.9,30.04,North,359,2.0,4.0,86,0.00,,---,0.00,VWS V14.01,2013-08-18 09:38:00,
2013-08-18 04:48:00,59.9,55.7,30.04,North,359,2.0,6.0,86,0.00,,---,0.00,VWS V14.01,2013-08-18 09:48:00,
2013-08-18 04:58:00,59.8,55.9,30.04,WNW,288,2.0,6.0,87,0.00,,---,0.00,VWS V14.01,2013-08-18 09:58:00,
2013-08-18 05:08:00,59.6,55.7,30.04,North,359,3.0,5.0,87,0.00,,---,0.00,VWS V14.01,2013-08-18 10:08:00,
2013-08-18 05:18:00,59.6,55.7,30.05,WNW,282,3.0,5.0,87,0.00,,---,0.00,VWS V14.01,2013-08-18 10:18:00,
2013-08-18 05:28:00,59.6,55.7,30.05,North,359,3.0,5.0,87,0.00,,---,0.00,VWS V14.01,2013-08-18 10:28:00,
2013-08-18 05:38:00,59.8,55.6,30.05,NW,304,2.0,4.0,86,0.00,,---,0.00,VWS V14.01,2013-08-18 10:38:00,
2013-08-18 05:48:00,59.8,55.6,30.06,NNW,346,3.0,6.0,86,0.00,,---,0.00,VWS V14.01,2013-08-18 10:48:00,
2013-08-18 05:58:00,59.9,55.7,30.06,NW,323,5.0,6.0,86,0.00,,---,0.00,VWS V14.01,2013-08-18 10:58:00,
2013-08-18 06:08:00,59.8,55.6,30.06,North,359,3.0,6.0,86,0.00,,---,0.00,VWS V14.01,2013-08-18 11:08:00,
2013-08-18 06:18:00,59.6,55.4,30.06,North,357,3.0,7.0,86,0.00,,---,0.00,VWS V14.01,2013-08-18 11:18:00,
2013-08-18 06:28:00,59.3,55.4,30.06,North,359,5.0,7.0,87,0.00,,---,0.00,VWS V14.01,2013-08-18 11:28:00,
2013-08-18 06:38:00,59.2,55.3,30.07,WSW,247,3.0,6.0,87,0.00,,---,0.00,VWS V14.01,2013-08-18 11:38:00,
2013-08-18 06:48:00,59.5,55.6,30.07,North,357,2.0,6.0,87,0.00,,---,0.00,VWS V14.01,2013-08-18 11:48:00,
2013-08-18 06:58:00,60.1,55.6,30.07,North,359,3.0,7.0,85,0.00,,---,0.00,VWS V14.01,2013-08-18 11:58:00,
2013-08-18 07:08:00,60.7,55.5,30.08,North,359,3.0,7.0,83,0.00,,---,0.00,VWS V14.01,2013-08-18 12:08:00,
2013-08-18 07:18:00,61.2,56.0,30.08,SSW,212,5.0,7.0,83,0.00,,---,0.00,VWS V14.01,2013-08-18 12:18:00,
2013-08-18 07:28:00,62.3,57.1,30.08,WNW,299,3.0,7.0,83,0.00,,---,0.00,VWS V14.01,2013-08-18 12:28:00,
2013-08-18 07:38:00,62.6,57.4,30.08,North,359,5.0,6.0,83,0.00,,---,0.00,VWS V14.01,2013-08-18 12:38:00,
2013-08-18 07:48:00,62.6,57.4,30.09,SW,223,6.0,7.0,83,0.00,,---,0.00,VWS V14.01,2013-08-18 12:48:00,
2013-08-18 07:58:00,64.3,59.0,30.09,North,359,5.0,7.0,83,0.00,,---,0.00,VWS V14.01,2013-08-18 12:58:00,
2013-08-18 08:08:00,65.2,59.9,30.09,North,357,3.0,7.0,83,0.00,,---,0.00,VWS V14.01,2013-08-18 13:08:00,
2013-08-18 08:18:00,66.1,60.8,30.09,North,359,4.0,7.0,83,0.00,,---,0.00,VWS V14.01,2013-08-18 13:18:00,
2013-08-18 08:28:00,66.8,61.5,30.09,North,357,3.0,7.0,83,0.00,,---,0.00,VWS V14.01,2013-08-18 13:28:00,
2013-08-18 08:39:00,68.3,62.9,30.09,WNW,302,5.0,5.0,83,0.00,,---,0.00,VWS V14.01,2013-08-18 13:39:00,
2013-08-18 08:49:00,69.1,63.7,30.09,North,359,3.0,7.0,83,0.00,,---,0.00,VWS V14.01,2013-08-18 13:49:00,
2013-08-18 08:59:00,69.6,64.2,30.09,North,359,6.0,7.0,83,0.00,,---,0.00,VWS V14.01,2013-08-18 13:59:00,
2013-08-18 09:09:00,71.5,60.0,30.09,North,357,6.0,8.0,67,0.00,,---,0.00,VWS V14.01,2013-08-18 14:09:00,
2013-08-18 09:19:00,72.0,60.5,30.09,SW,233,8.0,8.0,67,0.00,,---,0.00,VWS V14.01,2013-08-18 14:19:00,
2013-08-18 09:29:00,72.8,59.9,30.09,North,357,7.0,8.0,64,0.00,,---,0.00,VWS V14.01,2013-08-18 14:29:00,
2013-08-18 09:39:00,73.3,60.4,30.09,North,356,1.0,7.0,64,0.00,,---,0.00,VWS V14.01,2013-08-18 14:39:00,
2013-08-18 09:49:00,75.1,62.1,30.09,West,263,8.0,8.0,64,0.00,,---,0.00,VWS V14.01,2013-08-18 14:49:00,
2013-08-18 09:59:00,75.4,61.5,30.09,North,359,3.0,8.0,62,0.00,,---,0.00,VWS V14.01,2013-08-18 14:59:00,
2013-08-18 10:09:00,75.8,61.4,30.09,North,352,7.0,12.0,61,0.00,,---,0.00,VWS V14.01,2013-08-18 15:09:00,
2013-08-18 10:19:00,76.8,61.4,30.09,SW,224,2.0,12.0,59,0.00,,---,0.00,VWS V14.01,2013-08-18 15:19:00,
2013-08-18 10:29:00,77.4,61.5,30.09,North,357,7.0,12.0,58,0.00,,---,0.00,VWS V14.01,2013-08-18 15:29:00,
2013-08-18 10:39:00,77.6,60.7,30.09,North,359,5.0,13.0,56,0.00,,---,0.00,VWS V14.01,2013-08-18 15:39:00,
2013-08-18 10:49:00,77.9,60.5,30.09,NNW,340,5.0,13.0,55,0.00,,---,0.00,VWS V14.01,2013-08-18 15:49:00,
2013-08-18 10:59:00,78.3,61.3,30.09,North,359,7.0,13.0,56,0.00,,---,0.00,VWS V14.01,2013-08-18 15:59:00,
2013-08-18 11:09:00,78.6,60.6,30.09,North,359,6.0,12.0,54,0.00,,---,0.00,VWS V14.01,2013-08-18 16:09:00,
2013-08-18 11:19:00,79.2,59.5,30.09,North,356,7.0,12.0,51,0.00,,---,0.00,VWS V14.01,2013-08-18 16:19:00,
2013-08-18 11:29:00,79.9,60.2,30.09,North,356,4.0,12.0,51,0.00,,---,0.00,VWS V14.01,2013-08-18 16:29:00,
2013-08-18 11:39:00,79.8,60.1,30.08,North,359,7.0,9.0,51,0.00,,---,0.00,VWS V14.01,2013-08-18 16:39:00,
2013-08-18 11:49:00,79.6,60.4,30.07,North,359,0.0,11.0,52,0.00,,---,0.00,VWS V14.01,2013-08-18 16:49:00,
2013-08-18 11:59:00,80.5,61.3,30.07,NNW,328,6.0,11.0,52,0.00,,---,0.00,VWS V14.01,2013-08-18 16:59:00,
2013-08-18 12:09:00,80.9,60.0,30.07,NW,320,7.0,8.0,49,0.00,,---,0.00,VWS V14.01,2013-08-18 17:09:00,
2013-08-18 12:19:00,81.1,60.2,30.07,SSW,206,5.0,8.0,49,0.00,,---,0.00,VWS V14.01,2013-08-18 17:19:00,
2013-08-18 12:29:00,81.2,60.2,30.07,NNW,346,9.0,9.0,49,0.00,,---,0.00,VWS V14.01,2013-08-18 17:29:00,
2013-08-18 12:39:00,82.0,61.0,30.07,North,359,6.0,12.0,49,0.00,,---,0.00,VWS V14.01,2013-08-18 17:39:00,
2013-08-18 12:49:00,81.2,60.2,30.06,North,0,3.0,12.0,49,0.00,,---,0.00,VWS V14.01,2013-08-18 17:49:00,
2013-08-18 12:59:00,82.2,59.4,30.06,North,357,2.0,12.0,46,0.00,,---,0.00,VWS V14.01,2013-08-18 17:59:00,
2013-08-18 13:09:00,82.4,59.6,30.06,NNW,342,6.0,11.0,46,0.00,,---,0.00,VWS V14.01,2013-08-18 18:09:00,
2013-08-18 13:19:00,84.3,61.3,30.05,North,357,1.0,11.0,46,0.00,,---,0.00,VWS V14.01,2013-08-18 18:19:00,
2013-08-18 13:29:00,84.3,61.3,30.05,North,357,3.0,11.0,46,0.00,,---,0.00,VWS V14.01,2013-08-18 18:29:00,
2013-08-18 13:39:00,82.8,58.0,30.05,North,359,1.0,6.0,43,0.00,,---,0.00,VWS V14.01,2013-08-18 18:39:00,
2013-08-18 13:49:00,83.4,58.6,30.05,North,357,4.0,6.0,43,0.00,,---,0.00,VWS V14.01,2013-08-18 18:49:00,
2013-08-18 13:59:00,84.5,58.9,30.05,North,357,2.0,7.0,42,0.00,,---,0.00,VWS V14.01,2013-08-18 18:59:00,
2013-08-18 14:09:00,83.6,58.1,30.04,North,359,2.0,9.0,42,0.00,,---,0.00,VWS V14.01,2013-08-18 19:09:00,
2013-08-18 14:19:00,84.1,57.9,30.03,SSW,192,4.0,9.0,41,0.00,,---,0.00,VWS V14.01,2013-08-18 19:19:00,
2013-08-18 14:29:00,83.8,59.6,30.03,SSW,193,0.0,9.0,44,0.00,,---,0.00,VWS V14.01,2013-08-18 19:29:00,
2013-08-18 14:39:00,82.8,58.7,30.03,North,357,5.0,8.0,44,0.00,,---,0.00,VWS V14.01,2013-08-18 19:39:00,
2013-08-18 14:49:00,84.9,58.6,30.02,North,350,0.0,8.0,41,0.00,,---,0.00,VWS V14.01,2013-08-18 19:49:00,
2013-08-18 14:59:00,85.7,59.3,30.02,North,357,1.0,8.0,41,0.00,,---,0.00,VWS V14.01,2013-08-18 19:59:00,
2013-08-18 15:09:00,87.0,59.1,30.02,North,357,0.0,5.0,39,0.00,,---,0.00,VWS V14.01,2013-08-18 20:09:00,
2013-08-18 15:19:00,88.4,60.3,30.02,North,354,7.0,8.0,39,0.00,,---,0.00,VWS V14.01,2013-08-18 20:19:00,
2013-08-18 15:29:00,87.8,57.5,30.01,WSW,246,0.0,8.0,36,0.00,,---,0.00,VWS V14.01,2013-08-18 20:29:00,
2013-08-18 15:39:00,87.2,59.2,30.01,North,357,1.0,5.0,39,0.00,,---,0.00,VWS V14.01,2013-08-18 20:39:00,
2013-08-18 15:49:00,88.4,58.1,30.01,North,357,0.0,5.0,36,0.00,,---,0.00,VWS V14.01,2013-08-18 20:49:00,
2013-08-18 15:59:00,87.2,60.0,30.01,West,261,4.0,5.0,40,0.00,,---,0.00,VWS V14.01,2013-08-18 20:59:00,
2013-08-18 16:09:00,84.9,59.3,30.01,South,185,2.0,6.0,42,0.00,,---,0.00,VWS V14.01,2013-08-18 21:09:00,
2013-08-18 16:19:00,85.3,59.0,30.01,North,353,1.0,6.0,41,0.00,,---,0.00,VWS V14.01,2013-08-18 21:19:00,
2013-08-18 16:29:00,86.3,59.8,30.00,WNW,298,1.0,6.0,41,0.00,,---,0.00,VWS V14.01,2013-08-18 21:29:00,
2013-08-18 16:39:00,87.4,60.1,30.00,SSE,151,0.0,3.0,40,0.00,,---,0.00,VWS V14.01,2013-08-18 21:39:00,
2013-08-18 16:49:00,84.9,59.3,30.00,North,359,3.0,6.0,42,0.00,,---,0.00,VWS V14.01,2013-08-18 21:49:00,
2013-08-18 16:59:00,84.0,60.4,30.00,North,353,3.0,7.0,45,0.00,,---,0.00,VWS V14.01,2013-08-18 21:59:00,
2013-08-18 17:09:00,83.6,60.0,30.00,NW,312,0.0,7.0,45,0.00,,---,0.00,VWS V14.01,2013-08-18 22:09:00,
2013-08-18 17:19:00,83.6,60.0,30.00,North,359,4.0,7.0,45,0.00,,---,0.00,VWS V14.01,2013-08-18 22:19:00,
2013-08-18 17:29:00,83.4,60.5,30.00,North,357,1.0,7.0,46,0.00,,---,0.00,VWS V14.01,2013-08-18 22:29:00,
2013-08-18 17:39:00,83.0,60.1,30.00,North,359,1.0,6.0,46,0.00,,---,0.00,VWS V14.01,2013-08-18 22:39:00,
2013-08-18 17:49:00,83.2,59.7,30.00,North,356,0.0,6.0,45,0.00,,---,0.00,VWS V14.01,2013-08-18 22:49:00,
2013-08-18 17:59:00,83.2,59.7,30.00,North,359,2.0,6.0,45,0.00,,---,0.00,VWS V14.01,2013-08-18 22:59:00,
2013-08-18 18:09:00,82.2,59.4,30.00,SSW,198,0.0,5.0,46,0.00,,---,0.00,VWS V14.01,2013-08-18 23:09:00,
2013-08-18 18:19:00,82.6,60.3,30.00,South,189,1.0,5.0,47,0.00,,---,0.00,VWS V14.01,2013-08-18 23:19:00,
2013-08-18 18:29:00,82.8,60.5,29.99,SW,226,0.0,5.0,47,0.00,,---,0.00,VWS V14.01,2013-08-18 23:29:00,
2013-08-18 18:39:00,82.4,61.3,29.99,WNW,284,0.0,1.0,49,0.00,,---,0.00,VWS V14.01,2013-08-18 23:39:00,
2013-08-18 18:49:00,81.8,60.8,30.00,NW,306,0.0,2.0,49,0.00,,---,0.00,VWS V14.01,2013-08-18 23:49:00,
2013-08-18 18:59:00,81.8,60.8,30.00,WNW,296,0.0,2.0,49,0.00,,---,0.00,VWS V14.01,2013-08-18 23:59:00,
2013-08-18 19:09:00,81.4,61.5,30.00,WNW,291,0.0,0.0,51,0.00,,---,0.00,VWS V14.01,2013-08-19 00:09:00,
2013-08-18 19:19:00,80.7,62.5,29.99,WNW,301,0.0,1.0,54,0.00,,---,0.00,VWS V14.01,2013-08-19 00:19:00,
2013-08-18 19:30:00,79.6,62.5,30.00,WNW,291,0.0,1.0,56,0.00,,---,0.00,VWS V14.01,2013-08-19 00:30:00,
2013-08-18 19:40:00,78.5,62.5,30.00,West,265,0.0,0.0,58,0.00,,---,0.00,VWS V14.01,2013-08-19 00:40:00,
2013-08-18 19:50:00,77.2,61.8,30.00,West,277,0.0,0.0,59,0.00,,---,0.00,VWS V14.01,2013-08-19 00:50:00,
2013-08-18 20:00:00,76.1,62.6,30.00,West,274,0.0,0.0,63,0.00,,---,0.00,VWS V14.01,2013-08-19 01:00:00,
2013-08-18 20:10:00,74.9,61.9,30.00,WNW,285,0.0,0.0,64,0.00,,---,0.00,VWS V14.01,2013-08-19 01:10:00,
2013-08-18 20:20:00,74.2,61.2,30.00,WNW,291,0.0,0.0,64,0.00,,---,0.00,VWS V14.01,2013-08-19 01:20:00,
2013-08-18 20:30:00,73.7,60.8,30.00,WNW,289,0.0,0.0,64,0.00,,---,0.00,VWS V14.01,2013-08-19 01:30:00,
2013-08-18 20:40:00,73.5,61.5,30.00,West,281,0.0,0.0,66,0.00,,---,0.00,VWS V14.01,2013-08-19 01:40:00,
2013-08-18 20:50:00,73.5,61.5,30.00,West,280,0.0,0.0,66,0.00,,---,0.00,VWS V14.01,2013-08-19 01:50:00,
2013-08-18 21:00:00,73.5,62.3,30.00,West,278,0.0,0.0,68,0.00,,---,0.00,VWS V14.01,2013-08-19 02:00:00,
2013-08-18 21:10:00,71.6,61.3,30.00,West,270,0.0,0.0,70,0.00,,---,0.00,VWS V14.01,2013-08-19 02:10:00,
2013-08-18 21:20:00,70.9,61.0,30.00,WSW,243,0.0,0.0,71,0.00,,---,0.00,VWS V14.01,2013-08-19 02:20:00,
2013-08-18 21:30:00,70.4,61.0,30.01,WSW,246,0.0,0.0,72,0.00,,---,0.00,VWS V14.01,2013-08-19 02:30:00,
2013-08-18 21:40:00,70.1,60.7,30.01,WSW,240,0.0,0.0,72,0.00,,---,0.00,VWS V14.01,2013-08-19 02:40:00,
2013-08-18 21:50:00,69.6,60.2,30.01,SW,219,0.0,0.0,72,0.00,,---,0.00,VWS V14.01,2013-08-19 02:50:00,
2013-08-18 22:00:00,68.8,59.4,30.01,SW,217,0.0,0.0,72,0.00,,---,0.00,VWS V14.01,2013-08-19 03:00:00,
2013-08-18 22:10:00,68.1,59.9,30.01,SW,215,0.0,0.0,75,0.00,,---,0.00,VWS V14.01,2013-08-19 03:10:00,
2013-08-18 22:20:00,67.6,60.5,30.01,NW,322,0.0,1.0,78,0.00,,---,0.00,VWS V14.01,2013-08-19 03:20:00,
2013-08-18 22:30:00,67.1,60.0,30.01,NW,318,0.0,1.0,78,0.00,,---,0.00,VWS V14.01,2013-08-19 03:30:00,
2013-08-18 22:40:00,67.1,60.0,30.01,NW,309,0.0,0.0,78,0.00,,---,0.00,VWS V14.01,2013-08-19 03:40:00,
2013-08-18 22:50:00,67.1,60.0,30.01,WNW,302,0.0,0.0,78,0.00,,---,0.00,VWS V14.01,2013-08-19 03:50:00,
2013-08-18 23:00:00,67.1,59.3,30.01,NW,304,0.0,0.0,76,0.00,,---,0.00,VWS V14.01,2013-08-19 04:00:00,
2013-08-18 23:10:00,67.1,59.3,30.01,NW,309,0.0,0.0,76,0.00,,---,0.00,VWS V14.01,2013-08-19 04:10:00,
2013-08-18 23:20:00,66.9,59.1,30.01,WNW,299,0.0,0.0,76,0.00,,---,0.00,VWS V14.01,2013-08-19 04:20:00,
2013-08-18 23:30:00,66.1,60.5,30.01,NW,315,0.0,0.0,82,0.00,,---,0.00,VWS V14.01,2013-08-19 04:30:00,
2013-08-18 23:40:00,65.5,59.9,30.01,NW,305,0.0,0.0,82,0.00,,---,0.00,VWS V14.01,2013-08-19 04:40:00,
2013-08-18 23:50:00,65.2,59.6,30.01,WNW,298,0.0,0.0,82,0.00,,---,0.00,VWS V14.01,2013-08-19 04:50:00,